Location: Newark
(34.0333°N, 6.8333°W)
Time: 04:34:43
(UTC+00:00)

LightSail 2 - Visible Passes

Search period start: 26 May 2020 00:00
Search period end: 05 June 2020 00:00
Orbit: 696 x 719 km, 24.0° (Epoch: 25 May)

Date Brightness Start Highest point End Pass type
(mag) Time Alt. Az. Time Alt. Az. Time Alt. Az.
26 May 6.9 04:29:42 10° SSW 04:33:13 18° SSE 04:36:43 10° ESE visible
27 May 7.0 03:33:16 15° SSE 03:33:36 15° SSE 03:36:30 10° SE visible
28 May 6.6 04:15:49 14° SSW 04:18:44 23° S 04:22:44 10° ESE visible
29 May 6.7 03:19:32 19° SSE 03:19:32 19° SSE 03:22:45 10° ESE visible
30 May 6.4 04:02:06 19° SSW 04:04:15 25° S 04:08:28 10° ESE visible
31 May 6.7 03:05:50 21° SSE 03:05:50 21° SSE 03:08:37 10° ESE visible
31 May 6.3 04:45:11 10° WSW 04:49:26 26° S 04:53:41 10° SE visible
01 Jun 6.2 03:48:27 24° SSW 03:49:44 26° S 03:54:01 10° ESE visible
02 Jun 6.9 02:52:18 19° SE 02:52:18 19° SE 02:54:14 10° ESE visible
02 Jun 6.4 04:31:08 11° WSW 04:34:53 23° S 04:38:56 10° SE visible
03 Jun 6.2 03:35:04 25° S 03:35:10 25° S 03:39:21 10° SE visible
04 Jun 7.4 02:39:05 13° SE 02:39:05 13° SE 02:39:41 10° SE visible
04 Jun 6.6 04:17:56 15° SW 04:20:16 19° SSW 04:23:54 10° SSE visible
